Location: Champs
(48.8539°N, 2.6040°E)
Time: 18:38:08
(UTC+00:00)

ATLAS CENTAUR R/B - Pass Details

Date: 29 May 2022
Orbit: 443 x 688 km, 64.6° (Epoch: 07 June)

Event Time Altitude Azimuth Distance (km) Brightness Sun altitude
Rises 20:49:55 0° 322° (NW) 3,067 7.5 -9.1°
Reaches altitude 10° 20:52:29 10° 332° (NNW) 2,143 5.8 -9.4°
Maximum altitude 20:56:57 33° 37° (NE) 1,127 3.0 -9.9°
Drops below altitude 10° 21:01:14 10° 102° (ESE) 2,067 3.8 -10.3°
Enters shadow 21:01:41 - 105° (ESE) 2,220 3.9 -10.4°
